Sanford, ME

4:15 AM EDT on June 25, 2017 (GMT -0400)
Sanford Regional

Weather History for KSFM - April, 2014

Change the Weather History Date:

Saturday, April 26, 2014

  Actual Average Record
Temperature  
Mean Temperature 42 °F -  
Max Temperature 46 °F 57 °F 66 °F (1999)
Min Temperature 37 °F 33 °F 23 °F (1998)
Degree Days  
Heating Degree Days 24    
Moisture  
Dew Point -    
Average Humidity    
Maximum Humidity    
Minimum Humidity    
Precipitation  
Precipitation 0.11 in - - ()
Sea Level Pressure  
Sea Level Pressure 29.83 in    
Wind  
Wind Speed 3 mph (East)    
Max Wind Speed 10 mph    
Max Gust Speed 17 mph    
Visibility 10 miles    
Events      
Averages and records for this station are not official NWS values.
T = Trace of Precipitation, MM = Missing Value Source: NWS Daily Summary

Daily Weather History Graph

Daily Weather History Graph

Search for Another Location

Airport or City:

Trip Planner

Search our weather history database for the weather conditions in past years. The results will help you decide how hot, cold, wet, or windy it might be!

Date:

Astronomy

Apr. 26, 2014 Rise Set
Actual Time 5:43 AM EDT 7:38 PM EDT
Civil Twilight 5:12 AM EDT 8:09 PM EDT
Nautical Twilight 4:34 AM EDT 8:47 PM EDT
Astronomical Twilight 3:54 AM EDT 9:28 PM EDT
Moon 4:10 AM EDT (4/26) 4:59 PM EDT (4/26)
Length of Visible Light 14h 57m
Length of Day
13h 55m
Waning Crescent, 8% of the Moon is Illuminated
Apr 26
Waning Crescent
Apr 29
New
May 6
First Quarter
May 14
Full
May 21
Last Quarter

Hourly Weather History & Observations

Time (EDT) Temp. Windchill Dew Point Humidity Pressure Visibility Wind Dir Wind Speed Gust Speed Precip Events Conditions
12:15 AM 39.2 °F - - N/A% 29.84 in 10.0 mi Calm Calm - N/A   Clear
12:35 AM 37.4 °F 33.8 °F - N/A% 29.82 in 10.0 mi East 4.6 mph - N/A   Partly Cloudy
1:15 AM 37.4 °F - - N/A% 29.83 in 10.0 mi Calm Calm - N/A   Mostly Cloudy
1:35 AM 39.2 °F - - N/A% 29.82 in 10.0 mi Calm Calm - N/A   Mostly Cloudy
1:55 AM 39.2 °F - - N/A% 29.81 in 10.0 mi Calm Calm - N/A   Mostly Cloudy
2:15 AM 39.2 °F - - N/A% 29.81 in 10.0 mi Calm Calm - N/A   Overcast
2:35 AM 39.2 °F - - N/A% 29.81 in 10.0 mi Calm Calm - N/A   Overcast
2:55 AM 41.0 °F 39.0 °F - N/A% 29.80 in 10.0 mi ENE 3.5 mph - N/A   Overcast
3:15 AM 41.0 °F - - N/A% 29.80 in 10.0 mi Calm Calm - N/A   Overcast
3:35 AM 42.8 °F 41.1 °F - N/A% 29.80 in 10.0 mi NE 3.5 mph - N/A   Overcast
3:55 AM 41.0 °F 39.0 °F - N/A% 29.79 in 10.0 mi NE 3.5 mph - N/A   Overcast
4:15 AM 39.2 °F - - N/A% 29.79 in 10.0 mi Calm Calm - N/A   Mostly Cloudy
4:35 AM 41.0 °F 39.0 °F - N/A% 29.79 in 10.0 mi NE 3.5 mph - N/A   Overcast
4:55 AM 42.8 °F 40.1 °F - N/A% 29.80 in 10.0 mi NE 4.6 mph - N/A   Overcast
5:15 AM 41.0 °F - - N/A% 29.81 in 10.0 mi Calm Calm - N/A   Overcast
5:35 AM 42.8 °F 41.1 °F - N/A% 29.81 in 10.0 mi NE 3.5 mph - N/A   Overcast
5:55 AM 41.0 °F - - N/A% 29.82 in 10.0 mi Calm Calm - N/A   Mostly Cloudy
6:15 AM 39.2 °F - - N/A% 29.82 in 10.0 mi Calm Calm - N/A   Overcast
6:35 AM 41.0 °F - - N/A% 29.82 in 10.0 mi Calm Calm - N/A   Overcast
6:55 AM 41.0 °F - - N/A% 29.82 in 10.0 mi Calm Calm - N/A   Overcast
7:15 AM 42.8 °F - - N/A% 29.81 in 10.0 mi Calm Calm - N/A   Overcast
7:35 AM 42.8 °F - - N/A% 29.82 in 10.0 mi Calm Calm - N/A   Mostly Cloudy
7:55 AM 44.6 °F - - N/A% 29.81 in 10.0 mi Calm Calm - N/A   Overcast
8:15 AM 44.6 °F 41.4 °F - N/A% 29.82 in 10.0 mi South 5.8 mph - N/A   Overcast
8:35 AM 44.6 °F 42.2 °F - N/A% 29.82 in 10.0 mi SE 4.6 mph - N/A   Overcast
8:55 AM 46.4 °F 42.9 °F - N/A% 29.82 in 10.0 mi South 6.9 mph - N/A   Overcast
9:15 AM 46.4 °F 42.9 °F - N/A% 29.83 in 10.0 mi SSE 6.9 mph - N/A   Overcast
9:35 AM 46.4 °F 42.4 °F - N/A% 29.83 in 10.0 mi SSE 8.1 mph - N/A   Mostly Cloudy
10:15 AM 44.6 °F 41.4 °F - N/A% 29.84 in 10.0 mi SSE 5.8 mph 17.3 mph N/A   Overcast
10:35 AM 42.8 °F 38.6 °F - N/A% 29.85 in 10.0 mi South 6.9 mph 16.1 mph N/A   Overcast
10:55 AM 44.6 °F 40.7 °F - N/A% 29.85 in 10.0 mi South 6.9 mph - N/A   Overcast
11:15 AM 44.6 °F 40.7 °F - N/A% 29.84 in 10.0 mi SE 6.9 mph - 0.01 in   Mostly Cloudy
11:35 AM 44.6 °F 39.7 °F - N/A% 29.84 in 10.0 mi SSE 9.2 mph - 0.01 in   Mostly Cloudy
11:55 AM 42.8 °F 39.3 °F - N/A% 29.84 in 10.0 mi SE 5.8 mph - 0.01 in   Overcast
12:15 PM 42.8 °F 40.1 °F - N/A% 29.83 in 10.0 mi SSE 4.6 mph - 0.01 in   Overcast
12:35 PM 42.8 °F 40.1 °F - N/A% 29.83 in 8.0 mi SE 4.6 mph - 0.03 in   Overcast
12:55 PM 42.8 °F 38.6 °F - N/A% 29.84 in 10.0 mi ESE 6.9 mph - 0.04 in   Overcast
1:15 PM 42.8 °F 37.0 °F - N/A% 29.83 in 9.0 mi SE 10.4 mph - 0.02 in   Overcast
1:35 PM 42.8 °F 39.3 °F - N/A% 29.83 in 10.0 mi ESE 5.8 mph - 0.03 in   Overcast
1:55 PM 41.0 °F 39.0 °F - N/A% 29.82 in 10.0 mi ESE 3.5 mph - 0.04 in   Overcast
2:15 PM 41.0 °F 39.0 °F - N/A% 29.82 in 9.0 mi ESE 3.5 mph - 0.01 in   Overcast
2:35 PM 42.8 °F 41.1 °F - N/A% 29.81 in 10.0 mi East 3.5 mph - 0.02 in   Mostly Cloudy
2:55 PM 42.8 °F - - N/A% 29.81 in 10.0 mi Calm Calm - 0.02 in   Overcast
3:15 PM 42.8 °F 41.1 °F - N/A% 29.80 in 10.0 mi East 3.5 mph - N/A   Overcast
3:35 PM 42.8 °F 41.1 °F - N/A% 29.80 in 10.0 mi ESE 3.5 mph - N/A   Overcast
3:55 PM 42.8 °F 40.1 °F - N/A% 29.80 in 10.0 mi East 4.6 mph - N/A   Overcast
4:15 PM 42.8 °F - - N/A% 29.81 in 10.0 mi Calm Calm - N/A   Overcast
4:35 PM 42.8 °F - - N/A% 29.81 in 10.0 mi Calm Calm - N/A   Overcast
4:55 PM 42.8 °F 41.1 °F - N/A% 29.81 in 10.0 mi ESE 3.5 mph - N/A   Overcast
5:15 PM 42.8 °F 39.3 °F - N/A% 29.82 in 10.0 mi East 5.8 mph - N/A   Overcast
5:35 PM 42.8 °F 38.6 °F - N/A% 29.83 in 10.0 mi East 6.9 mph - N/A   Overcast
5:55 PM 41.0 °F 37.1 °F - N/A% 29.84 in 10.0 mi East 5.8 mph - N/A   Mostly Cloudy
6:15 PM 41.0 °F 38.0 °F - N/A% 29.84 in 10.0 mi ENE 4.6 mph - N/A   Mostly Cloudy
6:35 PM 41.0 °F 37.1 °F - N/A% 29.84 in 10.0 mi ENE 5.8 mph - N/A   Overcast
6:55 PM 41.0 °F 37.1 °F - N/A% 29.84 in 10.0 mi East 5.8 mph - N/A   Overcast
7:15 PM 39.2 °F 33.6 °F - N/A% 29.84 in 10.0 mi ENE 8.1 mph - N/A   Overcast
7:35 PM 39.2 °F 35.9 °F - N/A% 29.84 in 10.0 mi East 4.6 mph - N/A   Overcast
7:55 PM 39.2 °F 35.0 °F - N/A% 29.85 in 10.0 mi ENE 5.8 mph - N/A   Overcast
8:15 PM 39.2 °F 33.0 °F - N/A% 29.85 in 10.0 mi ENE 9.2 mph - N/A   Overcast
8:35 PM 39.2 °F 37.0 °F - N/A% 29.86 in 10.0 mi ENE 3.5 mph - N/A   Overcast
8:55 PM 39.2 °F - - N/A% 29.87 in 10.0 mi Calm Calm - N/A   Overcast
9:15 PM 39.2 °F 37.0 °F - N/A% 29.87 in 10.0 mi ENE 3.5 mph - N/A   Overcast
9:35 PM 39.2 °F 37.0 °F - N/A% 29.87 in 10.0 mi ENE 3.5 mph - N/A   Overcast
9:55 PM 39.2 °F 37.0 °F - N/A% 29.88 in 10.0 mi East 3.5 mph - N/A   Overcast
10:15 PM 39.2 °F 37.0 °F - N/A% 29.87 in 10.0 mi ENE 3.5 mph - N/A   Overcast
10:35 PM 39.2 °F 35.0 °F - N/A% 29.87 in 10.0 mi ENE 5.8 mph - N/A   Overcast
10:55 PM 39.2 °F - - N/A% 29.87 in 10.0 mi Calm Calm - N/A   Overcast
11:15 PM 39.2 °F - - N/A% 29.87 in 10.0 mi Calm Calm - N/A   Overcast
11:35 PM 39.2 °F - - N/A% 29.87 in 10.0 mi Calm Calm - N/A   Overcast
11:55 PM 39.2 °F 37.0 °F - N/A% 29.87 in 10.0 mi East 3.5 mph - N/A   Overcast